Printer-friendly version

IAU Minor Planet Center

Minor Planet Center

MPEC 2006-O25 : 2005 RN43

The following Minor Planet Electronic Circular may be linked-to from your own Web pages, but must not otherwise be redistributed electronically.


Read MPEC 2006-O24 Read MPEC 2006-O26


M.P.E.C. 2006-O25                                Issued 2006 July 23, 00:58 UT

     The Minor Planet Electronic Circulars contain information on unusual
         minor planets and routine data on comets.  They are published
   on behalf of Commission 20 of the International Astronomical Union by the
          Minor Planet Center, Smithsonian Astrophysical Observatory,
                          Cambridge, MA 02138, U.S.A.

                  Supported in part by the Brinson Foundation
                  Supported in part by the TABASGO Foundation
             Prepared using the Tamkin Foundation Computer Network

                              MPC@CFA.HARVARD.EDU
          URL http://cfa-www.harvard.edu/iau/mpc.html  ISSN 1523-6714

                                   2005 RN43

Observations:
     K05R43N 4C2001 06 15.34712 21 18 03.04 -00 34 18.5          20.2 V EO025705
     K05R43N 4C2001 06 15.35044 21 18 03.04 -00 34 18.5          21.1   EO025705
     K05R43N 4C2001 09 20.25198 21 11 35.36 -01 05 35.0          20.1 V EO025705
     K05R43N 4C2001 09 20.25530 21 11 35.35 -01 05 35.1          21.1   EO025705
     K05R43N 4C2002 10 05.19670 21 16 34.07 -01 06 31.1          20.1 V EO025705
     K05R43N 4C2002 10 05.20003 21 16 34.06 -01 06 31.1          21.1   EO025705
     K05R43N 4C2002 10 11.20501 21 16 22.24 -01 09 39.2          20.1 V EO025705
     K05R43N 4C2002 10 11.20833 21 16 22.23 -01 09 39.3          21.1   EO025705
     K05R43N 4C2003 10 18.10961 21 21 49.49 -01 05 58.5          20.2 V EO025705
     K05R43N 4C2003 10 18.11293 21 21 49.48 -01 05 58.6          21.1   EO025705
     K05R43N 4C2003 10 19.11043 21 21 48.28 -01 06 27.7          20.1 V EO025705
     K05R43N 4C2003 10 19.11375 21 21 48.28 -01 06 27.7          21.1   EO025705
     K05R43N 4C2003 10 23.10735 21 21 44.35 -01 08 20.8          20.1 V EO025705
     K05R43N 4C2003 10 23.11067 21 21 44.34 -01 08 20.8          21.1   EO025705
     K05R43N 4C2004 08 26.28968 21 30 14.50 -00 31 01.9          20.0 V EO025705
     K05R43N 4C2004 08 26.29300 21 30 14.49 -00 31 02.0          20.9   EO025705
     K05R43N*4C2005 09 10.19589 21 34 53.29 -00 31 39.4          20.0 V EO025705
     K05R43N 4C2005 09 10.19921 21 34 53.27 -00 31 39.5          21.0   EO025705
     K05R43N 4C2005 09 13.18196 21 34 41.45 -00 33 18.5          20.0 V EO025705
     K05R43N 4C2005 09 13.18528 21 34 41.42 -00 33 18.8          21.0   EO025705
     K05R43N 4C2005 09 15.16674 21 34 33.78 -00 34 24.6          20.0 V EO025705
     K05R43N 4C2005 09 15.17006 21 34 33.75 -00 34 24.7          20.9   EO025705
     K05R43N 4C2005 09 21.16789 21 34 11.91 -00 37 45.7          20.2 V EO025705
     K05R43N 4C2005 09 21.17121 21 34 11.92 -00 37 45.2          21.1   EO025705
     K05R43N 4C2005 09 23.17335 21 34 05.06 -00 38 52.8          20.0 V EO025705
     K05R43N 4C2005 09 23.17667 21 34 05.05 -00 38 52.8          21.0   EO025705
     K05R43N 4C2005 10 20.13812 21 33 00.93 -00 53 09.6          20.1 V EO025705
     K05R43N 4C2005 10 20.14144 21 33 00.93 -00 53 09.7          21.1   EO025705
     K05R43N 4C2005 10 22.13319 21 32 58.56 -00 54 06.6          20.2 V EO025705
     K05R43N 4C2005 10 22.13651 21 32 58.56 -00 54 06.9          21.1   EO025705
     K05R43N 4C2005 10 27.14963 21 32 54.19 -00 56 23.8          20.2 V EO025705
     K05R43N 4C2005 10 27.15295 21 32 54.19 -00 56 24.0          21.2   EO025705
     K05R43N 4C2005 10 30.11759 21 32 52.71 -00 57 40.7          20.2 V EO025705
     K05R43N 4C2005 10 30.12091 21 32 52.70 -00 57 40.8          21.1   EO025705
     K05R43N 4C2005 11 01.11447 21 32 52.18 -00 58 30.6          20.2 V EO025705
     K05R43N 4C2005 11 01.11780 21 32 52.18 -00 58 30.8          21.1   EO025705
     K05R43N 4C2005 11 03.13550 21 32 52.03 -00 59 19.4          20.2 V EO025705
     K05R43N 4C2005 11 03.13883 21 32 52.02 -00 59 19.6          21.1   EO025705
     K05R43N 4C2005 11 06.12218 21 32 52.52 -01 00 28.3          20.2 V EO025705
     K05R43N 4C2005 11 06.12550 21 32 52.51 -01 00 28.5          21.1   EO025705
     K05R43N 4C2005 11 12.18893 21 32 56.16 -01 02 35.8          20.5 V EO025705
     K05R43N 4C2005 11 12.18976 21 32 56.16 -01 02 35.8          21.8   EO025705
     K05R43N 4C2005 11 13.16329 21 32 57.07 -01 02 54.6          20.1 V EO025705
     K05R43N 4C2005 11 13.16661 21 32 57.07 -01 02 54.8          21.0   EO025705

Observer details:
705 Apache Point.  Observers SDSS Collaboration.  Measurers A. C. Becker,
    A. W. Puckett, J. Kubika.  2.5-m f/5 Ritchey-Chretien + CCD.

Orbital elements:
2005 RN43
Epoch 2006 Sept. 22.0 TT = JDT 2454000.5                MPC
M 333.29779              (2000.0)            P               Q
n   0.00368250     Peri.  167.13914     +0.99312089     +0.11011865
a  41.5312084      Node   186.91893     -0.11284752     +0.99081976
e   0.0219028      Incl.   19.29697     +0.03124642     +0.07842246
P 268              H    4.0           G   0.15           U   3
Residuals in seconds of arc
010615 705  0.1-  0.0     040826 705  0.0   0.0     051027 705  0.1-  0.1+
010615 705  0.0   0.0     050910 705  0.0   0.0     051027 705  0.1-  0.0
010920 705  0.0   0.1-    050910 705  0.1-  0.0     051030 705  0.1-  0.1+
010920 705  0.0   0.1-    050913 705  0.4+  0.1-    051030 705  0.2-  0.1+
021005 705  0.0   0.1-    050913 705  0.1+  0.3-    051101 705  0.0   0.1+
021005 705  0.0   0.0     050915 705  0.1+  0.1-    051101 705  0.0   0.0
021011 705  0.0   0.0     050915 705  0.2-  0.1-    051103 705  0.0   0.1+
021011 705  0.0   0.0     050921 705  0.2+  0.2-    051103 705  0.1-  0.0
031018 705  0.0   0.1+    050921 705  0.5+  0.4+    051106 705  0.0   0.1+
031018 705  0.1-  0.1+    050923 705  0.2+  0.2-    051106 705  0.2-  0.1-
031019 705  0.0   0.0     050923 705  0.2+  0.0     051112 705  0.0   0.0
031019 705  0.1+  0.1+    051020 705  0.1-  0.1+    051112 705  0.0   0.0
031023 705  0.1+  0.1+    051020 705  0.0   0.1+    051113 705  0.1-  0.0
031023 705  0.0   0.2+    051022 705  0.1-  0.0     051113 705  0.1-  0.1-
040826 705  0.1-  0.0     051022 705  0.0   0.2-

Ephemeris:
2005 RN43                a,e,i = 41.53, 0.02, 19                 q = 40.622
Date    TT    R. A. (2000) Decl.     Delta      r     Elong.  Phase     V
2006 07 14    21 44.84   -00 00.6   39.929   40.725   141.1     0.9    20.2
2006 07 24    21 44.18   -00 03.0   39.841   40.724   150.0     0.7    20.2
2006 08 03    21 43.46   -00 06.2   39.779   40.724   158.3     0.5    20.2
2006 08 13    21 42.70   -00 10.2   39.744   40.724   165.0     0.4    20.1
2006 08 23    21 41.93   -00 14.8   39.737   40.724   167.1     0.3    20.1
2006 09 02    21 41.18   -00 19.9   39.759   40.723   162.6     0.4    20.1
2006 09 12    21 40.48   -00 25.3   39.809   40.723   154.9     0.6    20.2
2006 09 22    21 39.85   -00 30.9   39.886   40.723   146.1     0.8    20.2
2006 10 02    21 39.31   -00 36.5   39.987   40.722   136.8     1.0    20.2
2006 10 12    21 38.90   -00 41.9   40.110   40.722   127.3     1.1    20.2
2006 10 22    21 38.62   -00 46.9   40.251   40.722   117.6     1.2    20.2
2006 11 01    21 38.48   -00 51.3   40.407   40.722   107.8     1.3    20.3
2006 11 11    21 38.50   -00 55.1   40.571   40.721    98.1     1.4    20.3
2006 11 21    21 38.69   -00 58.1   40.739   40.721    88.2     1.4    20.3
2006 12 01    21 39.03   -01 00.2   40.907   40.721    78.4     1.4    20.3
2006 12 11    21 39.52   -01 01.4   41.069   40.721    68.6     1.3    20.3

Gareth V. Williams           (C) Copyright 2006 MPC           M.P.E.C. 2006-O25

Read MPEC 2006-O24 Read MPEC 2006-O26


Our Web policy. Index to the CBAT/MPC/ICQ pages.


Valid HTML 4.01!